This is the latest recevied weather packets stored in our database for station/object G4KVI. If no packets are shown the sender has not sent any weather packets the latest 10 day(s).
| Time | Temp. | Humidity | Pressure | Rain* | Wind** | Luminosity | Snow |
|---|---|---|---|---|---|---|---|
| 1787757304 | 26.11° C | 46% | 1012.3 hPa | 0 mm | - | 482 W/m² | - |
| 1787757004 | 26.11° C | 46% | 1012.9 hPa | 0 mm | - | 391 W/m² | - |
| 1787756704 | 26.11° C | 47% | 1012.6 hPa | 0 mm | - | 178 W/m² | - |
| 1787756404 | 26.67° C | 46% | 1012.6 hPa | 0 mm | - | 386 W/m² | - |
| 1787756104 | 27.22° C | 46% | 1012.9 hPa | 0 mm | - | 492 W/m² | - |
| 1787755804 | 26.67° C | 47% | 1012.6 hPa | 0 mm | - | 463 W/m² | - |
| 1787755504 | 26.11° C | 47% | 1013 hPa | 0 mm | - | 431 W/m² | - |
| 1787755204 | 26.11° C | 46% | 1013 hPa | 0 mm | - | 429 W/m² | - |
| 1787754904 | 26.67° C | 46% | 1012.6 hPa | 0 mm | - | 487 W/m² | - |
| 1787754604 | 26.67° C | 48% | 1012.7 hPa | 0 mm | - | 501 W/m² | - |
| 1787754304 | 26.67° C | 46% | 1013.2 hPa | 0 mm | - | 503 W/m² | - |
| 1787754004 | 26.67° C | 47% | 1013.4 hPa | 0 mm | - | 530 W/m² | - |
| 1787753704 | 26.11° C | 49% | 1013.1 hPa | 0 mm | - | 576 W/m² | - |
| 1787753404 | 25.56° C | 49% | 1013.1 hPa | 0 mm | - | 581 W/m² | - |
| 1787753104 | 25.56° C | 49% | 1013.4 hPa | 0 mm | - | 237 W/m² | - |
| 1787752804 | 25.56° C | 50% | 1013.1 hPa | 0 mm | - | 149 W/m² | - |
| 1787752504 | 26.11° C | 50% | 1013.6 hPa | 0 mm | - | 173 W/m² | - |
| 1787752204 | 26.11° C | 49% | 1013.5 hPa | 0 mm | - | 177 W/m² | - |
| 1787751904 | 26.11° C | 50% | 1013.5 hPa | 0 mm | - | 606 W/m² | - |
| 1787751604 | 26.67° C | 48% | 1013.5 hPa | 0 mm | - | 633 W/m² | - |
| 1787751304 | 26.67° C | 49% | 1013.3 hPa | 0 mm | - | 625 W/m² | - |
| 1787751004 | 25.56° C | 51% | 1013.7 hPa | 0 mm | - | 702 W/m² | - |
| 1787750704 | 25.56° C | 53% | 1013.7 hPa | 0 mm | - | 210 W/m² | - |
| 1787750404 | 25.56° C | 52% | 1013.5 hPa | 0 mm | - | 661 W/m² | - |
| 1787750104 | 25.56° C | 52% | 1013.6 hPa | 0 mm | - | 654 W/m² | - |
* Rain latest hour (hover to see other rain measurements)
** Current wind speed in m/s (hover to see current wind gust speed)